Doha, Qatar

5:16 AM AST on February 07, 2016 (GMT +0300)
Doha International

Weather History for OTBD - June, 2013

Change the Weather History Date:

Thursday, June 20, 2013

  Actual Average Record
Temperature  
Mean Temperature 99 °F -  
Max Temperature 107 °F 107 °F 113 °F (2000)
Min Temperature 91 °F 83 °F 83 °F (2015)
Cooling Degree Days 34    
Growing Degree Days 49 (Base 50)    
Moisture  
Dew Point 55 °F    
Average Humidity 25    
Maximum Humidity 52    
Minimum Humidity 7    
Precipitation  
Precipitation 0.00 in 0.00 in - ()
Sea Level Pressure  
Sea Level Pressure 29.54 in    
Wind  
Wind Speed 7 mph ()    
Max Wind Speed 17 mph    
Max Gust Speed -    
Visibility 7.3 miles    
Events      
Averages and records for this station are not official NWS values.
T = Trace of Precipitation, MM = Missing Value Source: Averaged Metar Reports

Daily Weather History Graph

Daily Weather History Graph

Search for Another Location

Airport or City:

Trip Planner

Search our weather history database for the weather conditions in past years. The results will help you decide how hot, cold, wet, or windy it might be!

Date:

Astronomy

Jun. 20, 2013 Rise Set
Actual Time 4:43 AM AST 6:26 PM AST
Civil Twilight 4:18 AM AST 6:52 PM AST
Nautical Twilight 3:46 AM AST 7:23 PM AST
Astronomical Twilight 3:14 AM AST 7:56 PM AST
Moon 3:13 PM AST (6/20) 1:38 AM AST (6/20)
Length of Visible Light 14h 34m
Length of Day
13h 42m
Waxing Gibbous, 86% of the Moon is Illuminated
Jun 20
Waxing Gibbous
Jun 23
Full
Jun 30
Last Quarter
Jul 8
New
Jul 16
First Quarter

Hourly Weather History & Observations

Time (AST) Temp. Heat Index Dew Point Humidity Pressure Visibility Wind Dir Wind Speed Gust Speed Precip Events Conditions
12:00 AM 96.8 °F - 42.8 °F 16% 29.50 in - NNW 6.9 mph - N/A   Clear
1:00 AM 96.8 °F - 42.8 °F 16% 29.50 in - NNW 9.2 mph - N/A   Clear
1:30 AM 96.8 °F - 42.8 °F 16% 29.47 in - NNW 8.1 mph - N/A   Clear
2:00 AM 98.6 °F - 44.6 °F 16% 29.47 in - NW 4.6 mph - N/A   Clear
2:30 AM 96.8 °F - 50.0 °F 20% 29.47 in - Variable 2.3 mph - N/A   Clear
3:00 AM 94 °F - 49 °F 13% 29.50 in 6 mi SW 4.6 mph - -  
3:00 AM 95.0 °F - 48.2 °F 20% 29.47 in - SW 4.6 mph - N/A   Clear
3:30 AM 93.2 °F - 50.0 °F 23% 29.50 in - SW 4.6 mph - N/A   Clear
4:00 AM 93.2 °F - 50.0 °F 23% 29.50 in - WSW 4.6 mph - N/A   Clear
4:30 AM 93.2 °F - 48.2 °F 21% 29.50 in - West 4.6 mph - N/A   Clear
5:00 AM 93.2 °F - 46.4 °F 20% 29.50 in - West 4.6 mph - N/A   Clear
5:30 AM 93.2 °F - 48.2 °F 21% 29.53 in - WSW 5.8 mph - N/A   Clear
6:00 AM 93.2 °F - 46.4 °F 20% 29.53 in - West 4.6 mph - N/A   Clear
6:30 AM 95.0 °F - 46.4 °F 19% 29.53 in - West 4.6 mph - N/A   Clear
7:00 AM 96.8 °F - 44.6 °F 17% 29.56 in - West 3.5 mph - N/A   Clear
8:00 AM 102.2 °F - 42.8 °F 13% 29.56 in - NW 8.1 mph - N/A   Clear
8:30 AM 102.2 °F - 42.8 °F 13% 29.56 in - NW 6.9 mph - N/A   Clear
9:00 AM 104 °F - 44 °F 7% 29.59 in 7 mi WNW 6.9 mph - -  
9:00 AM 104.0 °F - 44.6 °F 13% 29.59 in - WNW 6.9 mph - N/A   Clear
10:00 AM 105.8 °F - 44.6 °F 13% 29.59 in - NNW 11.5 mph - N/A   Clear
11:00 AM 107.6 °F - 46.4 °F 13% 29.59 in - North 12.7 mph - N/A   Clear
12:00 PM 107.6 °F - 46.4 °F 13% 29.56 in - NNE 17.3 mph - N/A   Clear
12:30 PM 98.6 °F 101.0 °F 64.4 °F 32% 29.56 in - NNE 12.7 mph - N/A   Clear
1:00 PM 100.4 °F 101.3 °F 60.8 °F 27% 29.56 in - NE 13.8 mph - N/A   Clear
1:30 PM 100.4 °F 101.3 °F 60.8 °F 27% 29.56 in - NNE 13.8 mph - N/A   Clear
2:00 PM 100.4 °F 99.7 °F 57.2 °F 24% 29.56 in - NNE 15.0 mph - N/A   Clear
2:30 PM 98.6 °F 100.0 °F 62.6 °F 30% 29.56 in - NNE 15.0 mph - N/A   Clear
3:00 PM 97 °F - 63 °F 23% 29.57 in 7 mi NNE 13.8 mph - -  
3:00 PM 96.8 °F 98.0 °F 62.6 °F 32% 29.56 in - NNE 13.8 mph - N/A   Clear
4:00 PM 96.8 °F 98.0 °F 62.6 °F 32% 29.53 in - North 13.8 mph - N/A   Clear
4:30 PM 95.0 °F 97.0 °F 64.4 °F 36% 29.53 in - North 12.7 mph - N/A   Clear
5:00 PM 95.0 °F 98.5 °F 66.2 °F 39% 29.53 in - North 11.5 mph - N/A   Clear
5:30 PM 95.0 °F 99.5 °F 68.0 °F 41% 29.56 in - North 8.1 mph - N/A   Clear
6:00 PM 95.0 °F 99.5 °F 68.0 °F 41% 29.56 in - North 8.1 mph - N/A   Clear
6:30 PM 93.2 °F 97.7 °F 68.0 °F 44% 29.56 in - North 5.8 mph - N/A   Clear
7:00 PM 91.4 °F 96.8 °F 69.8 °F 49% 29.56 in - North 5.8 mph - N/A   Clear
7:30 PM 91.4 °F 98.4 °F 71.6 °F 52% 29.56 in - North 3.5 mph - N/A   Clear
8:00 PM 91.4 °F 96.8 °F 69.8 °F 49% 29.56 in - North 3.5 mph - N/A   Clear
8:30 PM 93.2 °F 94.9 °F 64.4 °F 38% 29.56 in - NNW 3.5 mph - N/A   Clear
9:00 PM 96 °F - 61 °F 22% 29.58 in 9 mi NNW 4.6 mph - -  
9:00 PM 95.0 °F 95.2 °F 60.8 °F 32% 29.56 in - NNW 4.6 mph - N/A   Clear
9:30 PM 98.6 °F 97.6 °F 57.2 °F 25% 29.56 in - Variable 2.3 mph - N/A   Clear
10:00 PM 96.8 °F 96.2 °F 59.0 °F 28% 29.56 in - Variable 1.2 mph - N/A   Clear
11:00 PM 96.8 °F - 50.0 °F 20% 29.56 in - NNW 5.8 mph - N/A   Clear
11:30 PM 95.0 °F - 51.8 °F 23% 29.56 in - NNW 3.5 mph - N/A   Clear